Wind_Speed
31 31 30 28 27 25 24 25 25 24 24 23 22 23 24 25 26 27 28 25 23 21 21 19 17 17 17 17 17 16 16 16 16 16 19 21 21 21 21 23 24 25
31 31 30 28 26 23 21 21 22 23 23 22 22 22 23 24 24 25 25 23 21 21 21 19 18 17 18 18 17 17 16 17 17 18 20 21 21 21 21 23 23 24
32 31 30 28 25 22 19 21 22 22 22 23 23 21 21 22 22 21 22 22 21 21 20 20 19 18 18 18 18 18 17 17 18 19 20 21 21 21 21 22 23 24
31 31 28 27 25 21 20 24 25 24 23 23 22 20 19 20 20 20 21 22 21 20 19 19 19 19 18 18 18 18 18 18 18 19 20 20 21 21 20 21 22 23
30 29 27 26 23 20 21 26 26 25 25 24 22 21 19 20 20 20 20 21 21 20 19 19 20 20 21 20 20 19 18 19 19 18 19 19 19 19 19 21 22 22
29 28 27 25 23 22 25 27 26 26 26 24 23 22 20 20 21 19 19 20 20 20 20 20 21 22 22 22 21 20 19 20 19 18 18 18 18 19 18 21 23 22
30 27 26 25 24 25 27 27 28 26 25 24 23 22 20 19 20 19 18 19 20 20 20 21 22 22 21 20 20 19 18 18 18 17 17 17 18 19 18 19 20 20
30 26 25 26 26 28 28 29 29 27 24 24 23 22 20 18 19 18 17 18 19 20 21 21 20 19 18 16 16 15 15 15 14 13 13 15 18 19 18 17 16 16
28 26 27 28 28 29 28 28 29 27 25 24 22 21 20 18 18 17 16 17 18 19 19 18 16 15 14 13 13 13 12 11 10 10 12 14 17 19 18 15 15 15
27 26 28 28 28 28 28 28 28 27 25 24 21 20 20 18 18 17 16 17 19 19 17 15 13 13 13 13 13 13 12 10 9 10 12 13 15 17 17 15 14 15
27 27 27 27 27 27 27 28 27 26 25 24 21 19 17 18 18 17 16 18 21 19 15 13 14 14 14 14 14 13 12 11 10 11 12 12 13 14 15 15 15 14
28 28 27 27 28 28 28 27 26 26 26 23 21 19 17 17 19 19 18 20 20 17 15 15 15 14 14 14 14 13 12 11 10 11 13 13 13 14 13 13 14 14
29 27 27 27 28 30 30 29 28 28 27 24 22 20 19 18 19 18 19 19 18 16 15 15 15 15 15 15 15 13 12 10 10 12 15 14 13 14 13 13 13 12
31 27 26 28 29 29 30 30 30 29 28 26 23 21 19 18 16 15 16 17 16 15 14 15 16 16 16 16 14 13 13 13 13 14 15 14 12 12 13 12 11 9
32 28 27 29 30 30 31 31 31 29 28 25 21 18 17 15 13 14 15 14 15 16 15 15 16 16 16 16 13 13 13 14 14 14 14 14 12 11 11 10 8 8
32 30 28 29 32 32 32 31 31 29 27 24 20 18 17 15 13 13 13 12 13 15 16 16 17 19 19 17 15 16 15 14 14 15 14 13 12 11 11 10 10 11
32 30 28 28 32 32 30 29 30 29 26 25 23 20 19 17 15 12 13 13 13 15 18 19 20 21 20 18 17 18 18 16 13 12 10 9 10 10 11 11 11 11
29 29 27 28 31 31 30 29 29 29 27 26 24 22 20 19 16 12 14 16 16 17 19 21 22 21 19 16 16 17 18 15 11 8 4 5 7 7 7 9 8 7
27 27 26 28 31 31 31 30 31 30 28 25 23 21 20 19 15 13 16 18 17 18 21 22 21 20 17 13 12 13 12 10 8 5 3 3 3 2 5 7 6 7
25 24 24 27 30 30 31 31 31 30 28 25 23 22 21 19 16 17 20 20 17 19 22 21 19 17 13 10 10 9 8 6 4 1 3 5 4 3 4 5 6 7
23 22 24 27 30 31 30 30 29 28 27 26 24 23 22 19 17 19 22 21 19 21 22 20 17 14 10 9 9 7 6 7 4 4 8 9 8 6 4 5 6 5
24 23 24 27 30 31 30 29 28 27 27 26 24 22 20 19 18 20 22 22 21 23 22 19 17 13 9 9 8 7 9 9 7 9 11 12 11 9 7 7 5 3
25 24 24 26 29 29 29 29 27 27 27 26 24 22 19 19 19 20 22 23 23 24 21 19 17 13 10 9 8 10 12 10 10 11 12 12 11 9 7 7 7 7
24 23 23 26 27 26 27 26 26 26 26 24 21 20 19 20 20 21 23 23 23 22 19 17 16 13 10 9 10 14 14 11 11 10 10 10 10 9 7 7 8 10
21 21 23 24 23 23 24 23 23 22 21 20 20 20 21 22 21 21 22 22 21 19 17 15 13 11 10 11 14 17 16 14 12 9 8 8 10 11 9 7 7 10
21 20 22 21 19 21 21 21 21 21 21 21 21 21 22 22 21 21 21 20 18 16 13 13 10 9 11 14 18 19 17 16 16 13 9 7 9 11 11 9 8 10
Wind_Direction
187 189 190 192 190 185 184 190 198 199 195 197 202 209 212 209 205 200 199 207 210 209 211 214 217 222 224 225 230 232 229 231 238 241 244 244 245 246 244 248 252 252
188 190 187 186 185 182 185 195 200 198 197 199 204 211 212 205 203 203 202 205 209 210 213 215 218 222 225 227 231 235 233 235 239 239 241 245 247 246 246 251 254 256
189 187 183 180 180 180 188 196 198 200 200 201 204 209 207 201 200 202 203 206 210 212 213 215 219 223 227 229 232 237 238 238 243 244 244 248 251 251 252 255 257 259
187 184 179 179 179 184 192 191 191 197 199 198 198 199 198 196 199 201 204 207 210 213 214 215 218 224 229 231 232 235 238 238 243 247 247 251 254 254 257 261 260 260
183 179 177 177 179 190 195 188 186 189 191 191 192 193 194 195 199 203 204 206 208 210 214 215 218 224 229 232 233 234 237 240 241 245 250 253 256 255 255 261 262 258
176 175 175 173 178 189 190 185 185 185 185 188 188 189 194 197 200 204 204 206 208 212 216 219 221 227 231 235 238 239 241 241 239 242 250 255 259 258 256 258 259 258
173 173 172 172 181 189 187 183 186 187 184 186 187 187 192 197 200 205 208 209 211 215 221 226 229 235 238 238 241 244 245 244 240 240 246 255 261 261 259 258 256 254
174 176 174 179 187 190 187 184 185 187 186 187 188 190 191 196 201 205 209 212 214 219 226 233 237 242 245 244 244 248 251 251 250 245 245 254 262 263 261 257 252 250
178 180 178 183 189 189 187 186 186 186 188 189 190 193 194 197 202 203 206 214 221 227 230 235 239 241 246 250 252 255 257 259 262 257 251 256 264 267 266 258 252 252
183 182 181 185 188 189 189 187 186 185 187 190 191 195 198 198 202 204 205 214 225 231 233 236 238 236 240 246 251 256 258 256 257 259 261 263 264 264 268 270 264 255
186 184 184 188 187 189 191 189 187 185 188 190 189 194 200 201 203 202 202 214 225 229 230 234 238 236 237 243 248 250 250 247 247 255 262 264 260 260 267 275 274 264
186 185 186 189 188 189 191 191 189 187 189 193 192 197 203 203 202 198 202 216 227 229 225 228 235 236 236 241 246 247 248 248 245 249 254 254 256 260 265 269 276 276
186 187 186 188 188 189 189 190 192 191 193 197 197 198 200 200 202 204 208 215 223 227 223 223 230 234 235 239 241 241 245 247 242 245 251 255 256 258 262 267 272 276
185 188 187 186 188 190 189 191 195 196 196 196 195 194 197 201 208 217 220 215 217 225 224 221 225 231 236 240 238 237 240 241 238 242 248 254 257 258 264 270 267 265
184 187 186 185 187 189 190 192 196 195 194 194 192 191 196 205 214 225 231 222 213 222 227 224 226 229 234 238 235 234 239 239 240 246 250 251 256 260 266 269 258 250
183 184 184 185 188 191 192 193 195 194 195 194 190 188 194 207 217 226 238 233 217 221 226 226 227 230 232 233 232 235 241 244 246 253 256 254 256 262 265 259 246 243
182 181 184 187 189 191 192 193 194 194 193 192 189 191 196 201 207 216 233 236 226 224 228 229 233 234 233 232 230 235 244 251 257 265 264 253 253 258 255 246 238 234
179 180 185 189 189 192 193 193 194 194 194 193 192 194 197 198 201 214 234 237 231 230 234 236 238 240 238 232 227 232 243 252 265 278 271 246 252 250 228 222 223 211
176 179 186 189 189 191 191 191 192 193 195 199 199 199 202 204 208 219 232 236 234 236 240 241 242 244 244 233 222 227 238 246 262 273 237 215 233 206 181 191 188 173
176 180 186 189 187 187 189 191 191 191 194 199 201 206 210 212 215 221 228 233 234 235 239 242 243 246 244 228 219 225 223 218 235 245 139 144 144 140 164 173 165 170
176 183 186 186 187 187 189 191 191 189 191 194 199 210 217 217 220 224 226 228 227 229 237 241 242 245 242 223 218 214 192 183 174 126 127 140 149 157 165 160 160 186
176 186 188 186 189 190 189 191 190 189 191 194 199 207 214 217 220 223 223 221 221 228 236 238 239 245 241 225 212 187 170 164 146 135 141 153 163 170 176 177 168 158
176 186 188 185 188 191 191 191 191 190 192 195 197 202 211 218 219 220 220 218 221 229 233 235 244 251 238 220 196 166 160 154 142 146 156 164 173 178 182 183 158 122
177 185 188 186 188 191 193 192 190 191 193 196 201 209 214 213 211 214 217 218 222 228 232 240 251 246 222 203 178 160 157 150 146 159 168 171 178 182 180 177 157 145
179 182 183 185 186 190 195 196 195 197 201 203 207 210 206 203 205 210 214 218 223 227 236 252 252 225 199 186 171 163 159 153 155 171 180 173 176 181 182 183 177 173
178 177 176 179 181 185 190 194 196 201 204 203 202 200 198 199 204 208 210 215 220 226 247 264 249 203 185 179 172 168 165 162 163 171 178 175 175 183 192 200 205 209
Height
1472 1475 1479 1482 1484 1487 1489 1491 1492 1494 1497 1498 1499 1501 1501 1503 1504 1506 1508 1509 1510 1511 1512 1513 1514 1514 1515 1516 1517 1518 1519 1519 1520 1520 1520 1520 1521 1522 1523 1523 1523 1524
1471 1475 1479 1482 1484 1487 1489 1490 1491 1493 1495 1496 1498 1499 1501 1502 1504 1506 1507 1508 1509 1510 1511 1512 1513 1513 1514 1515 1516 1516 1517 1518 1518 1518 1518 1518 1519 1520 1521 1522 1522 1523
1471 1474 1478 1481 1484 1486 1486 1486 1489 1491 1493 1495 1497 1498 1500 1502 1504 1505 1506 1507 1509 1510 1510 1511 1511 1512 1512 1513 1514 1514 1515 1516 1516 1516 1517 1517 1518 1519 1520 1521 1522 1522
1470 1474 1478 1480 1482 1482 1481 1483 1487 1490 1492 1494 1496 1497 1499 1501 1503 1504 1505 1507 1508 1509 1509 1510 1510 1510 1511 1511 1512 1513 1513 1514 1514 1515 1515 1516 1517 1519 1521 1521 1521 1521
1470 1474 1476 1478 1479 1479 1479 1482 1485 1487 1490 1492 1494 1496 1498 1500 1501 1503 1504 1505 1506 1507 1508 1508 1509 1509 1509 1510 1510 1511 1512 1512 1512 1513 1514 1515 1516 1517 1520 1520 1518 1518
1469 1471 1473 1476 1477 1476 1478 1482 1484 1486 1489 1490 1492 1495 1496 1498 1500 1501 1503 1504 1505 1506 1506 1507 1507 1507 1507 1508 1509 1509 1510 1510 1510 1511 1512 1513 1514 1514 1516 1517 1515 1514
1467 1468 1471 1473 1473 1474 1477 1480 1483 1486 1488 1489 1491 1492 1494 1496 1498 1500 1501 1503 1504 1505 1505 1506 1506 1506 1506 1507 1507 1507 1508 1508 1508 1509 1510 1511 1511 1510 1511 1513 1512 1511
1463 1465 1469 1470 1469 1472 1476 1479 1482 1485 1486 1488 1489 1491 1492 1494 1496 1498 1500 1501 1503 1503 1504 1504 1504 1505 1505 1505 1506 1506 1507 1507 1507 1508 1509 1509 1509 1508 1508 1510 1509 1508
1460 1463 1466 1467 1468 1471 1474 1477 1480 1482 1484 1486 1489 1490 1492 1493 1494 1496 1498 1500 1501 1502 1503 1503 1503 1504 1504 1504 1505 1505 1505 1506 1506 1507 1507 1507 1507 1506 1506 1508 1508 1507
1457 1462 1464 1465 1467 1469 1472 1476 1478 1481 1483 1485 1488 1490 1491 1491 1492 1494 1497 1498 1499 1500 1501 1502 1502 1503 1503 1503 1504 1504 1504 1505 1505 1505 1505 1505 1505 1504 1504 1505 1507 1507
1455 1460 1462 1464 1466 1468 1471 1475 1477 1479 1482 1484 1487 1489 1490 1490 1491 1493 1495 1496 1498 1499 1501 1501 1502 1502 1502 1502 1502 1503 1503 1503 1504 1503 1503 1503 1503 1503 1503 1503 1504 1505
1454 1458 1460 1463 1465 1467 1470 1473 1475 1477 1480 1482 1484 1486 1488 1489 1490 1491 1493 1494 1496 1498 1500 1501 1501 1501 1501 1501 1501 1501 1501 1502 1502 1501 1501 1500 1501 1501 1501 1501 1502 1502
1452 1455 1459 1461 1464 1466 1469 1471 1473 1475 1477 1480 1481 1483 1486 1488 1488 1489 1490 1493 1495 1497 1498 1500 1500 1500 1500 1499 1499 1499 1499 1500 1500 1499 1498 1498 1499 1499 1500 1501 1501 1501
1450 1454 1457 1460 1462 1465 1467 1469 1471 1473 1476 1478 1480 1482 1484 1485 1486 1487 1489 1492 1494 1496 1497 1498 1499 1499 1498 1498 1498 1498 1498 1497 1497 1496 1496 1497 1497 1498 1499 1499 1500 1500
1449 1452 1456 1459 1461 1464 1466 1468 1470 1473 1476 1479 1481 1482 1482 1483 1485 1487 1488 1491 1494 1495 1496 1497 1497 1497 1496 1496 1496 1496 1495 1495 1495 1494 1494 1495 1496 1496 1497 1497 1498 1499
1448 1451 1454 1457 1460 1462 1464 1467 1471 1474 1476 1478 1480 1481 1482 1483 1485 1487 1489 1492 1494 1495 1496 1496 1495 1495 1494 1495 1495 1494 1493 1493 1493 1492 1492 1493 1494 1495 1496 1496 1496 1497
1447 1451 1453 1456 1459 1461 1464 1467 1470 1473 1475 1477 1478 1480 1482 1483 1485 1486 1489 1492 1494 1495 1495 1494 1494 1493 1493 1493 1493 1492 1491 1491 1491 1491 1491 1491 1493 1494 1494 1495 1495 1496
1447 1450 1452 1455 1458 1460 1463 1466 1468 1471 1473 1475 1477 1479 1481 1483 1483 1484 1489 1493 1495 1495 1494 1493 1493 1492 1492 1491 1491 1490 1489 1489 1489 1489 1489 1490 1491 1492 1493 1493 1494 1495
1445 1448 1450 1453 1455 1458 1461 1463 1465 1468 1471 1474 1476 1478 1481 1482 1481 1483 1489 1494 1495 1494 1493 1491 1492 1491 1490 1489 1489 1488 1488 1488 1488 1488 1488 1489 1490 1491 1492 1492 1493 1495
1444 1446 1449 1451 1454 1458 1460 1462 1464 1466 1469 1472 1475 1477 1480 1480 1479 1483 1490 1494 1495 1494 1491 1490 1490 1489 1488 1487 1487 1487 1487 1487 1487 1487 1488 1489 1490 1491 1492 1492 1493 1495
1442 1445 1448 1450 1453 1456 1459 1461 1464 1466 1469 1471 1473 1476 1478 1478 1479 1484 1490 1493 1494 1492 1489 1489 1489 1487 1486 1486 1485 1485 1485 1485 1486 1487 1488 1490 1491 1492 1493 1493 1494 1495
1441 1443 1446 1449 1452 1454 1457 1459 1462 1465 1468 1470 1472 1475 1477 1477 1480 1486 1490 1492 1491 1489 1488 1487 1487 1485 1485 1484 1484 1484 1484 1485 1486 1488 1489 1491 1492 1492 1493 1494 1495 1496
1440 1442 1445 1448 1450 1453 1455 1458 1461 1463 1466 1468 1470 1472 1475 1478 1483 1487 1489 1490 1489 1487 1486 1486 1485 1483 1483 1483 1482 1483 1484 1485 1487 1488 1490 1491 1492 1493 1494 1494 1495 1496
1440 1441 1444 1446 1449 1451 1454 1456 1459 1462 1465 1466 1468 1470 1474 1479 1484 1487 1487 1487 1487 1485 1484 1484 1482 1481 1481 1481 1481 1482 1483 1485 1487 1488 1490 1491 1492 1493 1493 1494 1495 1496
1439 1441 1443 1446 1448 1452 1454 1456 1459 1461 1464 1466 1468 1471 1476 1480 1483 1484 1485 1484 1484 1483 1483 1482 1480 1479 1479 1480 1480 1482 1483 1484 1486 1488 1489 1491 1492 1493 1494 1495 1496 1496
1439 1441 1444 1446 1448 1451 1454 1456 1458 1460 1463 1466 1469 1473 1477 1479 1480 1481 1482 1482 1481 1481 1480 1479 1478 1478 1478 1479 1480 1481 1483 1484 1485 1487 1489 1491 1492 1492 1493 1495 1496 1497